Location: Cabeza de los Veneras
(40.2000°N, 5.2000°W)
Time: 03:43:10
(UTC+00:00)

Okean O Rocket - Pass Details

Date: 18 April 2024
Orbit: 619 x 639 km, 98.1° (Epoch: 25 May)

Event Time Altitude Azimuth Distance (km) Brightness Sun altitude
Exits shadow 21:02:12 12° 202° (SSW) 1,881 3.9 -21.2°
Maximum altitude 21:05:45 31° 263° (W) 1,099 3.2 -21.7°
Drops below altitude 10° 21:09:39 10° 326° (NNW) 2,014 5.2 -22.3°
Sets 21:12:04 0° 337° (NNW) 2,930 6.0 -22.7°
